2020,01,12,00,00,00,130.1,,,,,,,,,,,,,,
2020,01,12,00,01,00,,,,,,,,,,,,,,,
2020,01,12,00,02,00,133.5,,,,,,,,,,,,,,
2020,01,12,00,03,00,148.4,,,,,,,,,,,,,,
2020,01,12,00,04,00,186.6,,,,,,,,,,,,,,
2020,01,12,00,05,00,173.0,,,,,,,,,,,,,,
2020,01,12,00,06,00,138.7,,,,,,,,,,,,,,
2020,01,12,00,07,00,131.0,,,,,,,,,,,,,,
2020,01,12,00,08,00,129.4,,,,,,,,,,,,,,
2020,01,12,00,09,00,125.5,,,,,,,,,,,,,,
2020,01,12,00,10,00,121.0,,,,,,,,,,,,,,
2020,01,12,00,11,00,118.5,,,,,,,,,,,,,,
2020,01,12,00,12,00,120.2,,,,,,,,,,,,,,
2020,01,12,00,13,00,123.0,,,,,,,,,,,,,,
2020,01,12,00,14,00,120.4,,,,,,,,,,,,,,
2020,01,12,00,15,00,124.4,,,,,,,,,,,,,,
2020,01,12,00,16,00,125.7,,,,,,,,,,,,,,
2020,01,12,00,17,00,133.0,,,,,,,,,,,,,,
2020,01,12,00,18,00,148.9,,,,,,,,,,,,,,
2020,01,12,00,19,00,143.1,,,,,,,,,,,,,,
2020,01,12,00,20,00,129.8,,,,,,,,,,,,,,
2020,01,12,00,21,00,127.4,,,,,,,,,,,,,,
2020,01,12,00,22,00,129.6,,,,,,,,,,,,,,
2020,01,12,00,23,00,126.6,,,,,,,,,,,,,,
2020,01,12,00,24,00,124.7,,,,,,,,,,,,,,
2020,01,12,00,25,00,122.3,,,,,,,,,,,,,,
2020,01,12,00,26,00,121.8,,,,,,,,,,,,,,
2020,01,12,00,27,00,118.3,,,,,,,,,,,,,,
2020,01,12,00,28,00,124.4,,,,,,,,,,,,,,
2020,01,12,00,29,00,122.4,,,,,,,,,,,,,,
2020,01,12,00,30,00,123.5,,,,,,,,,,,,,,
2020,01,12,00,31,00,128.1,,,,,,,,,,,,,,
2020,01,12,00,32,00,118.8,,,,,,,,,,,,,,
2020,01,12,00,33,00,117.5,,,,,,,,,,,,,,
2020,01,12,00,34,00,118.2,,,,,,,,,,,,,,
2020,01,12,00,35,00,118.9,,,,,,,,,,,,,,
2020,01,12,00,36,00,118.7,,,,,,,,,,,,,,
2020,01,12,00,37,00,119.2,,,,,,,,,,,,,,
2020,01,12,00,38,00,124.4,,,,,,,,,,,,,,
2020,01,12,00,39,00,124.0,,,,,,,,,,,,,,
2020,01,12,00,40,00,127.6,,,,,,,,,,,,,,
2020,01,12,00,41,00,128.6,,,,,,,,,,,,,,
2020,01,12,00,42,00,129.6,,,,,,,,,,,,,,
2020,01,12,00,43,00,128.6,,,,,,,,,,,,,,
2020,01,12,00,44,00,134.4,,,,,,,,,,,,,,
2020,01,12,00,45,00,124.2,,,,,,,,,,,,,,
2020,01,12,00,46,00,128.6,,,,,,,,,,,,,,
2020,01,12,00,47,00,121.4,,,,,,,,,,,,,,
2020,01,12,00,48,00,118.2,,,,,,,,,,,,,,
2020,01,12,00,49,00,117.5,,,,,,,,,,,,,,
2020,01,12,00,50,00,117.3,,,,,,,,,,,,,,
2020,01,12,00,51,00,117.0,,,,,,,,,,,,,,
2020,01,12,00,52,00,117.8,,,,,,,,,,,,,,
2020,01,12,00,53,00,117.7,,,,,,,,,,,,,,
2020,01,12,00,54,00,119.7,,,,,,,,,,,,,,
2020,01,12,00,55,00,123.3,,,,,,,,,,,,,,
2020,01,12,00,56,00,129.1,,,,,,,,,,,,,,
2020,01,12,00,57,00,129.7,,,,,,,,,,,,,,
2020,01,12,00,58,00,124.8,,,,,,,,,,,,,,
2020,01,12,00,59,00,132.0,,,,,,,,,,,,,,
2020,01,12,01,00,00,129.1,,,,,,,,,,,,,,
2020,01,12,01,01,00,121.9,,,,,,,,,,,,,,
2020,01,12,01,02,00,120.9,,,,,,,,,,,,,,
2020,01,12,01,03,00,116.4,,,,,,,,,,,,,,
2020,01,12,01,04,00,115.9,,,,,,,,,,,,,,
2020,01,12,01,05,00,115.5,,,,,,,,,,,,,,
2020,01,12,01,06,00,115.0,,,,,,,,,,,,,,
2020,01,12,01,07,00,117.8,,,,,,,,,,,,,,
2020,01,12,01,08,00,119.2,,,,,,,,,,,,,,
2020,01,12,01,09,00,125.3,,,,,,,,,,,,,,
2020,01,12,01,10,00,132.3,,,,,,,,,,,,,,
2020,01,12,01,11,00,149.4,,,,,,,,,,,,,,
2020,01,12,01,12,00,153.9,,,,,,,,,,,,,,
2020,01,12,01,13,00,151.2,,,,,,,,,,,,,,
2020,01,12,01,14,00,128.9,,,,,,,,,,,,,,
2020,01,12,01,15,00,123.0,,,,,,,,,,,,,,
2020,01,12,01,16,00,122.7,,,,,,,,,,,,,,
2020,01,12,01,17,00,121.6,,,,,,,,,,,,,,
2020,01,12,01,18,00,127.1,,,,,,,,,,,,,,
2020,01,12,01,19,00,124.5,,,,,,,,,,,,,,
2020,01,12,01,20,00,126.8,,,,,,,,,,,,,,
2020,01,12,01,21,00,129.2,,,,,,,,,,,,,,
2020,01,12,01,22,00,129.9,,,,,,,,,,,,,,
2020,01,12,01,23,00,125.2,,,,,,,,,,,,,,
2020,01,12,01,24,00,124.0,,,,,,,,,,,,,,
2020,01,12,01,25,00,124.7,,,,,,,,,,,,,,
2020,01,12,01,26,00,127.4,,,,,,,,,,,,,,
2020,01,12,01,27,00,129.7,,,,,,,,,,,,,,
2020,01,12,01,28,00,130.3,,,,,,,,,,,,,,
2020,01,12,01,29,00,137.1,,,,,,,,,,,,,,
2020,01,12,01,30,00,139.0,,,,,,,,,,,,,,
2020,01,12,01,31,00,132.9,,,,,,,,,,,,,,
2020,01,12,01,32,00,129.8,,,,,,,,,,,,,,
2020,01,12,01,33,00,135.4,,,,,,,,,,,,,,
2020,01,12,01,34,00,142.5,,,,,,,,,,,,,,
2020,01,12,01,35,00,156.1,,,,,,,,,,,,,,
2020,01,12,01,36,00,138.9,,,,,,,,,,,,,,
2020,01,12,01,37,00,123.8,,,,,,,,,,,,,,
2020,01,12,01,38,00,119.5,,,,,,,,,,,,,,
2020,01,12,01,39,00,121.0,,,,,,,,,,,,,,
2020,01,12,01,40,00,121.9,,,,,,,,,,,,,,
2020,01,12,01,41,00,122.2,,,,,,,,,,,,,,
2020,01,12,01,42,00,122.8,,,,,,,,,,,,,,
2020,01,12,01,43,00,124.7,,,,,,,,,,,,,,
2020,01,12,01,44,00,127.9,,,,,,,,,,,,,,
2020,01,12,01,45,00,137.0,,,,,,,,,,,,,,
2020,01,12,01,46,00,134.2,,,,,,,,,,,,,,
2020,01,12,01,47,00,137.7,,,,,,,,,,,,,,
2020,01,12,01,48,00,150.1,,,,,,,,,,,,,,
2020,01,12,01,49,00,141.4,,,,,,,,,,,,,,
2020,01,12,01,50,00,132.3,,,,,,,,,,,,,,
2020,01,12,01,51,00,126.3,,,,,,,,,,,,,,
2020,01,12,01,52,00,124.4,,,,,,,,,,,,,,
2020,01,12,01,53,00,123.5,,,,,,,,,,,,,,
2020,01,12,01,54,00,123.8,,,,,,,,,,,,,,
2020,01,12,01,55,00,127.3,,,,,,,,,,,,,,
2020,01,12,01,56,00,120.8,,,,,,,,,,,,,,
2020,01,12,01,57,00,119.2,,,,,,,,,,,,,,
2020,01,12,01,58,00,115.9,,,,,,,,,,,,,,
2020,01,12,01,59,00,116.4,,,,,,,,,,,,,,
2020,01,12,02,00,00,116.7,,,,,,,,,,,,,,
2020,01,12,02,01,00,115.9,,,,,,,,,,,,,,
2020,01,12,02,02,00,117.3,,,,,,,,,,,,,,
2020,01,12,02,03,00,115.2,,,,,,,,,,,,,,
2020,01,12,02,04,00,113.1,,,,,,,,,,,,,,
2020,01,12,02,05,00,115.1,,,,,,,,,,,,,,
2020,01,12,02,06,00,118.7,,,,,,,,,,,,,,
2020,01,12,02,07,00,126.8,,,,,,,,,,,,,,
2020,01,12,02,08,00,120.9,,,,,,,,,,,,,,
2020,01,12,02,09,00,126.8,,,,,,,,,,,,,,
2020,01,12,02,10,00,124.8,,,,,,,,,,,,,,
2020,01,12,02,11,00,124.0,,,,,,,,,,,,,,
2020,01,12,02,12,00,119.5,,,,,,,,,,,,,,
2020,01,12,02,13,00,122.4,,,,,,,,,,,,,,
2020,01,12,02,14,00,120.0,,,,,,,,,,,,,,
2020,01,12,02,15,00,119.3,,,,,,,,,,,,,,
2020,01,12,02,16,00,118.2,,,,,,,,,,,,,,
2020,01,12,02,17,00,116.5,,,,,,,,,,,,,,
2020,01,12,02,18,00,115.2,,,,,,,,,,,,,,
2020,01,12,02,19,00,113.3,,,,,,,,,,,,,,
2020,01,12,02,20,00,113.1,,,,,,,,,,,,,,
2020,01,12,02,21,00,113.8,,,,,,,,,,,,,,
2020,01,12,02,22,00,114.0,,,,,,,,,,,,,,
2020,01,12,02,23,00,113.3,,,,,,,,,,,,,,
2020,01,12,02,24,00,116.0,,,,,,,,,,,,,,
2020,01,12,02,25,00,119.6,,,,,,,,,,,,,,
2020,01,12,02,26,00,120.1,,,,,,,,,,,,,,
2020,01,12,02,27,00,122.0,,,,,,,,,,,,,,
2020,01,12,02,28,00,124.5,,,,,,,,,,,,,,
2020,01,12,02,29,00,124.9,,,,,,,,,,,,,,
2020,01,12,02,30,00,131.4,,,,,,,,,,,,,,
2020,01,12,02,31,00,116.3,,,,,,,,,,,,,,
2020,01,12,02,32,00,110.7,,,,,,,,,,,,,,
2020,01,12,02,33,00,109.9,,,,,,,,,,,,,,
2020,01,12,02,34,00,109.1,,,,,,,,,,,,,,
2020,01,12,02,35,00,115.4,,,,,,,,,,,,,,
2020,01,12,02,36,00,119.3,,,,,,,,,,,,,,
2020,01,12,02,37,00,125.0,,,,,,,,,,,,,,
2020,01,12,02,38,00,124.8,,,,,,,,,,,,,,
2020,01,12,02,39,00,129.6,,,,,,,,,,,,,,
2020,01,12,02,40,00,125.5,,,,,,,,,,,,,,
2020,01,12,02,41,00,128.5,,,,,,,,,,,,,,
2020,01,12,02,42,00,140.9,,,,,,,,,,,,,,
2020,01,12,02,43,00,150.0,,,,,,,,,,,,,,
2020,01,12,02,44,00,133.9,,,,,,,,,,,,,,
2020,01,12,02,45,00,129.3,,,,,,,,,,,,,,
2020,01,12,02,46,00,131.7,,,,,,,,,,,,,,
2020,01,12,02,47,00,149.6,,,,,,,,,,,,,,
2020,01,12,02,48,00,156.0,,,,,,,,,,,,,,
2020,01,12,02,49,00,159.2,,,,,,,,,,,,,,
2020,01,12,02,50,00,145.2,,,,,,,,,,,,,,
2020,01,12,02,51,00,147.2,,,,,,,,,,,,,,
2020,01,12,02,52,00,134.7,,,,,,,,,,,,,,
2020,01,12,02,53,00,145.9,,,,,,,,,,,,,,
2020,01,12,02,54,00,143.9,,,,,,,,,,,,,,
2020,01,12,02,55,00,156.5,,,,,,,,,,,,,,
2020,01,12,02,56,00,160.2,,,,,,,,,,,,,,
2020,01,12,02,57,00,127.3,,,,,,,,,,,,,,
2020,01,12,02,58,00,125.8,,,,,,,,,,,,,,
2020,01,12,02,59,00,126.2,,,,,,,,,,,,,,
2020,01,12,03,00,00,127.8,,,,,,,,,,,,,,
2020,01,12,03,01,00,126.4,,,,,,,,,,,,,,
2020,01,12,03,02,00,123.6,,,,,,,,,,,,,,
2020,01,12,03,03,00,121.5,,,,,,,,,,,,,,
2020,01,12,03,04,00,116.2,,,,,,,,,,,,,,
2020,01,12,03,05,00,118.8,,,,,,,,,,,,,,
2020,01,12,03,06,00,117.3,,,,,,,,,,,,,,
2020,01,12,03,07,00,117.9,,,,,,,,,,,,,,
2020,01,12,03,08,00,119.6,,,,,,,,,,,,,,
2020,01,12,03,09,00,117.6,,,,,,,,,,,,,,
2020,01,12,03,10,00,120.3,,,,,,,,,,,,,,
2020,01,12,03,11,00,120.8,,,,,,,,,,,,,,
2020,01,12,03,12,00,122.7,,,,,,,,,,,,,,
2020,01,12,03,13,00,124.0,,,,,,,,,,,,,,
2020,01,12,03,14,00,126.7,,,,,,,,,,,,,,
2020,01,12,03,15,00,135.8,,,,,,,,,,,,,,
2020,01,12,03,16,00,142.6,,,,,,,,,,,,,,
2020,01,12,03,17,00,146.3,,,,,,,,,,,,,,
2020,01,12,03,18,00,135.8,,,,,,,,,,,,,,
2020,01,12,03,19,00,128.3,,,,,,,,,,,,,,
2020,01,12,03,20,00,125.6,,,,,,,,,,,,,,
2020,01,12,03,21,00,122.2,,,,,,,,,,,,,,
2020,01,12,03,22,00,116.9,,,,,,,,,,,,,,
2020,01,12,03,23,00,119.8,,,,,,,,,,,,,,
2020,01,12,03,24,00,119.8,,,,,,,,,,,,,,
2020,01,12,03,25,00,116.5,,,,,,,,,,,,,,
2020,01,12,03,26,00,119.0,,,,,,,,,,,,,,
2020,01,12,03,27,00,126.4,,,,,,,,,,,,,,
2020,01,12,03,28,00,123.1,,,,,,,,,,,,,,
2020,01,12,03,29,00,116.4,,,,,,,,,,,,,,
2020,01,12,03,30,00,117.1,,,,,,,,,,,,,,
2020,01,12,03,31,00,116.5,,,,,,,,,,,,,,
2020,01,12,03,32,00,114.7,,,,,,,,,,,,,,
2020,01,12,03,33,00,115.4,,,,,,,,,,,,,,
2020,01,12,03,34,00,119.7,,,,,,,,,,,,,,
2020,01,12,03,35,00,121.4,,,,,,,,,,,,,,
2020,01,12,03,36,00,119.2,,,,,,,,,,,,,,
2020,01,12,03,37,00,121.1,,,,,,,,,,,,,,
2020,01,12,03,38,00,120.5,,,,,,,,,,,,,,
2020,01,12,03,39,00,117.8,,,,,,,,,,,,,,
2020,01,12,03,40,00,117.3,,,,,,,,,,,,,,
2020,01,12,03,41,00,118.5,,,,,,,,,,,,,,
2020,01,12,03,42,00,118.7,,,,,,,,,,,,,,
2020,01,12,03,43,00,120.1,,,,,,,,,,,,,,
2020,01,12,03,44,00,116.5,,,,,,,,,,,,,,
2020,01,12,03,45,00,118.0,,,,,,,,,,,,,,
2020,01,12,03,46,00,119.9,,,,,,,,,,,,,,
2020,01,12,03,47,00,128.3,,,,,,,,,,,,,,
2020,01,12,03,48,00,125.2,,,,,,,,,,,,,,
2020,01,12,03,49,00,125.2,,,,,,,,,,,,,,
2020,01,12,03,50,00,125.7,,,,,,,,,,,,,,
2020,01,12,03,51,00,123.2,,,,,,,,,,,,,,
2020,01,12,03,52,00,124.7,,,,,,,,,,,,,,
2020,01,12,03,53,00,119.4,,,,,,,,,,,,,,
2020,01,12,03,54,00,126.5,,,,,,,,,,,,,,
2020,01,12,03,55,00,125.0,,,,,,,,,,,,,,
2020,01,12,03,56,00,123.0,,,,,,,,,,,,,,
2020,01,12,03,57,00,126.7,,,,,,,,,,,,,,
2020,01,12,03,58,00,124.7,,,,,,,,,,,,,,
2020,01,12,03,59,00,120.3,,,,,,,,,,,,,,
2020,01,12,04,00,00,120.7,,,,,,,,,,,,,,
2020,01,12,04,01,00,121.0,,,,,,,,,,,,,,
2020,01,12,04,02,00,116.5,,,,,,,,,,,,,,
2020,01,12,04,03,00,111.8,,,,,,,,,,,,,,
2020,01,12,04,04,00,112.8,,,,,,,,,,,,,,
2020,01,12,04,05,00,115.2,,,,,,,,,,,,,,
2020,01,12,04,06,00,120.8,,,,,,,,,,,,,,
2020,01,12,04,07,00,118.2,,,,,,,,,,,,,,
2020,01,12,04,08,00,120.3,,,,,,,,,,,,,,
2020,01,12,04,09,00,119.3,,,,,,,,,,,,,,
2020,01,12,04,10,00,118.3,,,,,,,,,,,,,,
2020,01,12,04,11,00,110.6,,,,,,,,,,,,,,
2020,01,12,04,12,00,107.8,,,,,,,,,,,,,,
2020,01,12,04,13,00,113.0,,,,,,,,,,,,,,
2020,01,12,04,14,00,112.1,,,,,,,,,,,,,,
2020,01,12,04,15,00,106.8,,,,,,,,,,,,,,
2020,01,12,04,16,00,110.9,,,,,,,,,,,,,,
2020,01,12,04,17,00,115.0,,,,,,,,,,,,,,
2020,01,12,04,18,00,118.8,,,,,,,,,,,,,,
2020,01,12,04,19,00,119.4,,,,,,,,,,,,,,
2020,01,12,04,20,00,112.6,,,,,,,,,,,,,,
2020,01,12,04,21,00,108.4,,,,,,,,,,,,,,
2020,01,12,04,22,00,110.6,,,,,,,,,,,,,,
2020,01,12,04,23,00,123.5,,,,,,,,,,,,,,
2020,01,12,04,24,00,131.0,,,,,,,,,,,,,,
2020,01,12,04,25,00,136.3,,,,,,,,,,,,,,
2020,01,12,04,26,00,119.4,,,,,,,,,,,,,,
2020,01,12,04,27,00,109.1,,,,,,,,,,,,,,
2020,01,12,04,28,00,110.9,,,,,,,,,,,,,,
2020,01,12,04,29,00,107.1,,,,,,,,,,,,,,
2020,01,12,04,30,00,107.7,,,,,,,,,,,,,,
2020,01,12,04,31,00,108.7,,,,,,,,,,,,,,
2020,01,12,04,32,00,105.6,,,,,,,,,,,,,,
2020,01,12,04,33,00,105.2,,,,,,,,,,,,,,
2020,01,12,04,34,00,100.5,,,,,,,,,,,,,,
2020,01,12,04,35,00,99.9,,,,,,,,,,,,,,
2020,01,12,04,36,00,102.2,,,,,,,,,,,,,,
2020,01,12,04,37,00,102.7,,,,,,,,,,,,,,
2020,01,12,04,38,00,103.8,,,,,,,,,,,,,,
2020,01,12,04,39,00,108.3,,,,,,,,,,,,,,
2020,01,12,04,40,00,103.8,,,,,,,,,,,,,,
2020,01,12,04,41,00,101.8,,,,,,,,,,,,,,
2020,01,12,04,42,00,103.3,,,,,,,,,,,,,,
2020,01,12,04,43,00,101.9,,,,,,,,,,,,,,
2020,01,12,04,44,00,102.4,,,,,,,,,,,,,,
2020,01,12,04,45,00,104.7,,,,,,,,,,,,,,
2020,01,12,04,46,00,104.0,,,,,,,,,,,,,,
2020,01,12,04,47,00,100.1,,,,,,,,,,,,,,
2020,01,12,04,48,00,100.3,,,,,,,,,,,,,,
2020,01,12,04,49,00,100.6,,,,,,,,,,,,,,
2020,01,12,04,50,00,99.0,,,,,,,,,,,,,,
2020,01,12,04,51,00,99.3,,,,,,,,,,,,,,
2020,01,12,04,52,00,100.0,,,,,,,,,,,,,,
2020,01,12,04,53,00,99.2,,,,,,,,,,,,,,
2020,01,12,04,54,00,100.4,,,,,,,,,,,,,,
2020,01,12,04,55,00,99.7,,,,,,,,,,,,,,
2020,01,12,04,56,00,100.4,,,,,,,,,,,,,,
2020,01,12,04,57,00,100.6,,,,,,,,,,,,,,
2020,01,12,04,58,00,100.1,,,,,,,,,,,,,,
2020,01,12,04,59,00,101.0,,,,,,,,,,,,,,
2020,01,12,05,00,00,100.3,,,,,,,,,,,,,,
2020,01,12,05,01,00,100.2,,,,,,,,,,,,,,
2020,01,12,05,02,00,100.1,,,,,,,,,,,,,,
2020,01,12,05,03,00,101.5,,,,,,,,,,,,,,
2020,01,12,05,04,00,101.9,,,,,,,,,,,,,,
2020,01,12,05,05,00,105.7,,,,,,,,,,,,,,
2020,01,12,05,06,00,107.5,,,,,,,,,,,,,,
2020,01,12,05,07,00,109.8,,,,,,,,,,,,,,
2020,01,12,05,08,00,107.5,,,,,,,,,,,,,,
2020,01,12,05,09,00,108.5,,,,,,,,,,,,,,
2020,01,12,05,10,00,107.0,,,,,,,,,,,,,,
2020,01,12,05,11,00,110.7,,,,,,,,,,,,,,
2020,01,12,05,12,00,112.4,,,,,,,,,,,,,,
2020,01,12,05,13,00,113.6,,,,,,,,,,,,,,
2020,01,12,05,14,00,118.5,,,,,,,,,,,,,,
2020,01,12,05,15,00,113.3,,,,,,,,,,,,,,
2020,01,12,05,16,00,113.8,,,,,,,,,,,,,,
2020,01,12,05,17,00,113.2,,,,,,,,,,,,,,
2020,01,12,05,18,00,110.3,,,,,,,,,,,,,,
2020,01,12,05,19,00,110.5,,,,,,,,,,,,,,
2020,01,12,05,20,00,112.6,,,,,,,,,,,,,,
2020,01,12,05,21,00,115.2,,,,,,,,,,,,,,
2020,01,12,05,22,00,115.1,,,,,,,,,,,,,,
2020,01,12,05,23,00,116.5,,,,,,,,,,,,,,
2020,01,12,05,24,00,120.1,,,,,,,,,,,,,,
2020,01,12,05,25,00,120.2,,,,,,,,,,,,,,
2020,01,12,05,26,00,123.6,,,,,,,,,,,,,,
2020,01,12,05,27,00,122.5,,,,,,,,,,,,,,
2020,01,12,05,28,00,134.9,,,,,,,,,,,,,,
2020,01,12,05,29,00,134.9,,,,,,,,,,,,,,
2020,01,12,05,30,00,125.4,,,,,,,,,,,,,,
2020,01,12,05,31,00,132.3,,,,,,,,,,,,,,
2020,01,12,05,32,00,141.3,,,,,,,,,,,,,,
2020,01,12,05,33,00,139.6,,,,,,,,,,,,,,
2020,01,12,05,34,00,135.1,,,,,,,,,,,,,,
2020,01,12,05,35,00,140.5,,,,,,,,,,,,,,
2020,01,12,05,36,00,143.2,,,,,,,,,,,,,,
2020,01,12,05,37,00,149.5,,,,,,,,,,,,,,
2020,01,12,05,38,00,156.1,,,,,,,,,,,,,,
2020,01,12,05,39,00,154.2,,,,,,,,,,,,,,
2020,01,12,05,40,00,145.1,,,,,,,,,,,,,,
2020,01,12,05,41,00,152.0,,,,,,,,,,,,,,
2020,01,12,05,42,00,151.1,,,,,,,,,,,,,,
2020,01,12,05,43,00,153.2,,,,,,,,,,,,,,
2020,01,12,05,44,00,151.3,,,,,,,,,,,,,,
2020,01,12,05,45,00,150.0,,,,,,,,,,,,,,
2020,01,12,05,46,00,143.2,,,,,,,,,,,,,,
2020,01,12,05,47,00,146.0,,,,,,,,,,,,,,
2020,01,12,05,48,00,146.4,,,,,,,,,,,,,,
2020,01,12,05,49,00,139.0,,,,,,,,,,,,,,
2020,01,12,05,50,00,144.4,,,,,,,,,,,,,,
2020,01,12,05,51,00,139.9,,,,,,,,,,,,,,
2020,01,12,05,52,00,140.0,,,,,,,,,,,,,,
2020,01,12,05,53,00,140.3,,,,,,,,,,,,,,
2020,01,12,05,54,00,149.3,,,,,,,,,,,,,,
2020,01,12,05,55,00,147.2,,,,,,,,,,,,,,
2020,01,12,05,56,00,142.2,,,,,,,,,,,,,,
2020,01,12,05,57,00,146.9,,,,,,,,,,,,,,
2020,01,12,05,58,00,141.8,,,,,,,,,,,,,,
2020,01,12,05,59,00,145.7,,,,,,,,,,,,,,
2020,01,12,06,00,00,150.5,,,,,,,,,,,,,,
2020,01,12,06,01,00,144.0,,,,,,,,,,,,,,
2020,01,12,06,02,00,141.9,,,,,,,,,,,,,,
2020,01,12,06,03,00,144.3,,,,,,,,,,,,,,
2020,01,12,06,04,00,150.4,,,,,,,,,,,,,,
2020,01,12,06,05,00,144.5,,,,,,,,,,,,,,
2020,01,12,06,06,00,142.1,,,,,,,,,,,,,,
2020,01,12,06,07,00,148.0,,,,,,,,,,,,,,
2020,01,12,06,08,00,145.6,,,,,,,,,,,,,,
2020,01,12,06,09,00,140.5,,,,,,,,,,,,,,
2020,01,12,06,10,00,132.5,,,,,,,,,,,,,,
2020,01,12,06,11,00,131.4,,,,,,,,,,,,,,
2020,01,12,06,12,00,127.0,,,,,,,,,,,,,,
2020,01,12,06,13,00,125.2,,,,,,,,,,,,,,
2020,01,12,06,14,00,128.4,,,,,,,,,,,,,,
2020,01,12,06,15,00,131.9,,,,,,,,,,,,,,
2020,01,12,06,16,00,143.0,,,,,,,,,,,,,,
2020,01,12,06,17,00,126.5,,,,,,,,,,,,,,
2020,01,12,06,18,00,121.5,,,,,,,,,,,,,,
2020,01,12,06,19,00,123.9,,,,,,,,,,,,,,
2020,01,12,06,20,00,123.0,,,,,,,,,,,,,,
2020,01,12,06,21,00,125.1,,,,,,,,,,,,,,
2020,01,12,06,22,00,120.1,,,,,,,,,,,,,,
2020,01,12,06,23,00,125.4,,,,,,,,,,,,,,
2020,01,12,06,24,00,129.9,,,,,,,,,,,,,,
2020,01,12,06,25,00,122.9,,,,,,,,,,,,,,
2020,01,12,06,26,00,119.7,,,,,,,,,,,,,,
2020,01,12,06,27,00,122.0,,,,,,,,,,,,,,
2020,01,12,06,28,00,123.9,,,,,,,,,,,,,,
2020,01,12,06,29,00,121.0,,,,,,,,,,,,,,
2020,01,12,06,30,00,126.0,,,,,,,,,,,,,,
2020,01,12,06,31,00,122.2,,,,,,,,,,,,,,
2020,01,12,06,32,00,128.5,,,,,,,,,,,,,,
2020,01,12,06,33,00,142.8,,,,,,,,,,,,,,
2020,01,12,06,34,00,148.9,,,,,,,,,,,,,,
2020,01,12,06,35,00,151.8,,,,,,,,,,,,,,
2020,01,12,06,36,00,150.7,,,,,,,,,,,,,,
2020,01,12,06,37,00,145.5,,,,,,,,,,,,,,
2020,01,12,06,38,00,143.0,,,,,,,,,,,,,,
2020,01,12,06,39,00,135.3,,,,,,,,,,,,,,
2020,01,12,06,40,00,123.4,,,,,,,,,,,,,,
2020,01,12,06,41,00,125.1,,,,,,,,,,,,,,
2020,01,12,06,42,00,143.3,,,,,,,,,,,,,,
2020,01,12,06,43,00,143.4,,,,,,,,,,,,,,
2020,01,12,06,44,00,138.3,,,,,,,,,,,,,,
2020,01,12,06,45,00,140.1,,,,,,,,,,,,,,
2020,01,12,06,46,00,125.0,,,,,,,,,,,,,,
2020,01,12,06,47,00,124.5,,,,,,,,,,,,,,
2020,01,12,06,48,00,123.0,,,,,,,,,,,,,,
2020,01,12,06,49,00,119.9,,,,,,,,,,,,,,
2020,01,12,06,50,00,123.4,,,,,,,,,,,,,,
2020,01,12,06,51,00,119.3,,,,,,,,,,,,,,
2020,01,12,06,52,00,117.9,,,,,,,,,,,,,,
2020,01,12,06,53,00,126.1,,,,,,,,,,,,,,
2020,01,12,06,54,00,136.9,,,,,,,,,,,,,,
2020,01,12,06,55,00,160.3,,,,,,,,,,,,,,
2020,01,12,06,56,00,182.6,,,,,,,,,,,,,,
2020,01,12,06,57,00,156.5,,,,,,,,,,,,,,
2020,01,12,06,58,00,129.6,,,,,,,,,,,,,,
2020,01,12,06,59,00,118.1,,,,,,,,,,,,,,
2020,01,12,07,00,00,114.0,,,,,,,,,,,,,,
2020,01,12,07,01,00,112.3,,,,,,,,,,,,,,
2020,01,12,07,02,00,113.2,,,,,,,,,,,,,,
2020,01,12,07,03,00,113.9,,,,,,,,,,,,,,
2020,01,12,07,04,00,112.1,,,,,,,,,,,,,,
2020,01,12,07,05,00,115.2,,,,,,,,,,,,,,
2020,01,12,07,06,00,121.9,,,,,,,,,,,,,,
2020,01,12,07,07,00,123.1,,,,,,,,,,,,,,
2020,01,12,07,08,00,125.3,,,,,,,,,,,,,,
2020,01,12,07,09,00,120.7,,,,,,,,,,,,,,
2020,01,12,07,10,00,117.2,,,,,,,,,,,,,,
2020,01,12,07,11,00,113.8,,,,,,,,,,,,,,
2020,01,12,07,12,00,113.5,,,,,,,,,,,,,,
2020,01,12,07,13,00,115.0,,,,,,,,,,,,,,
2020,01,12,07,14,00,116.3,,,,,,,,,,,,,,
2020,01,12,07,15,00,116.0,,,,,,,,,,,,,,
2020,01,12,07,16,00,120.4,,,,,,,,,,,,,,
2020,01,12,07,17,00,128.2,,,,,,,,,,,,,,
2020,01,12,07,18,00,137.2,,,,,,,,,,,,,,
2020,01,12,07,19,00,135.1,,,,,,,,,,,,,,
2020,01,12,07,20,00,131.3,,,,,,,,,,,,,,
2020,01,12,07,21,00,131.6,,,,,,,,,,,,,,
2020,01,12,07,22,00,125.0,,,,,,,,,,,,,,
2020,01,12,07,23,00,120.1,,,,,,,,,,,,,,
2020,01,12,07,24,00,,,,,,,,,,,,,,,
2020,01,12,07,25,00,,,,,,,,,,,,,,,
2020,01,12,07,26,00,117.8,,,,,,,,,,,,,,
2020,01,12,07,27,00,121.2,,,,,,,,,,,,,,
2020,01,12,07,28,00,131.2,,,,,,,,,,,,,,
2020,01,12,07,29,00,138.9,,,,,,,,,,,,,,
2020,01,12,07,30,00,137.3,,,,,,,,,,,,,,
2020,01,12,07,31,00,139.2,,,,,,,,,,,,,,
2020,01,12,07,32,00,166.7,,,,,,,,,,,,,,
2020,01,12,07,33,00,179.0,,,,,,,,,,,,,,
2020,01,12,07,34,00,184.6,,,,,,,,,,,,,,
2020,01,12,07,35,00,160.6,,,,,,,,,,,,,,
2020,01,12,07,36,00,145.2,,,,,,,,,,,,,,
2020,01,12,07,37,00,133.1,,,,,,,,,,,,,,
2020,01,12,07,38,00,130.7,,,,,,,,,,,,,,
2020,01,12,07,39,00,123.7,,,,,,,,,,,,,,
2020,01,12,07,40,00,114.7,,,,,,,,,,,,,,
2020,01,12,07,41,00,115.8,,,,,,,,,,,,,,
2020,01,12,07,42,00,124.1,,,,,,,,,,,,,,
2020,01,12,07,43,00,116.1,,,,,,,,,,,,,,
2020,01,12,07,44,00,119.9,,,,,,,,,,,,,,
2020,01,12,07,45,00,131.2,,,,,,,,,,,,,,
2020,01,12,07,46,00,149.6,,,,,,,,,,,,,,
2020,01,12,07,47,00,150.6,,,,,,,,,,,,,,
2020,01,12,07,48,00,148.8,,,,,,,,,,,,,,
2020,01,12,07,49,00,137.4,,,,,,,,,,,,,,
2020,01,12,07,50,00,148.0,,,,,,,,,,,,,,
2020,01,12,07,51,00,164.6,,,,,,,,,,,,,,
2020,01,12,07,52,00,177.5,,,,,,,,,,,,,,
2020,01,12,07,53,00,162.6,,,,,,,,,,,,,,
2020,01,12,07,54,00,142.2,,,,,,,,,,,,,,
2020,01,12,07,55,00,127.4,,,,,,,,,,,,,,
2020,01,12,07,56,00,141.0,,,,,,,,,,,,,,
2020,01,12,07,57,00,154.9,,,,,,,,,,,,,,
2020,01,12,07,58,00,170.1,,,,,,,,,,,,,,
2020,01,12,07,59,00,177.2,,,,,,,,,,,,,,
2020,01,12,08,00,00,178.8,,,,,,,,,,,,,,
2020,01,12,08,01,00,195.8,,,,,,,,,,,,,,
2020,01,12,08,02,00,182.9,,,,,,,,,,,,,,
2020,01,12,08,03,00,186.3,,,,,,,,,,,,,,
2020,01,12,08,04,00,177.4,,,,,,,,,,,,,,
2020,01,12,08,05,00,156.3,,,,,,,,,,,,,,
2020,01,12,08,06,00,155.2,,,,,,,,,,,,,,
2020,01,12,08,07,00,157.5,,,,,,,,,,,,,,
2020,01,12,08,08,00,154.2,,,,,,,,,,,,,,
2020,01,12,08,09,00,155.7,,,,,,,,,,,,,,
2020,01,12,08,10,00,150.1,,,,,,,,,,,,,,
2020,01,12,08,11,00,150.0,,,,,,,,,,,,,,
2020,01,12,08,12,00,149.4,,,,,,,,,,,,,,
2020,01,12,08,13,00,152.8,,,,,,,,,,,,,,
2020,01,12,08,14,00,151.8,,,,,,,,,,,,,,
2020,01,12,08,15,00,145.8,,,,,,,,,,,,,,
2020,01,12,08,16,00,136.8,,,,,,,,,,,,,,
2020,01,12,08,17,00,136.2,,,,,,,,,,,,,,
2020,01,12,08,18,00,138.8,,,,,,,,,,,,,,
2020,01,12,08,19,00,154.0,,,,,,,,,,,,,,
2020,01,12,08,20,00,165.5,,,,,,,,,,,,,,
2020,01,12,08,21,00,178.0,,,,,,,,,,,,,,
2020,01,12,08,22,00,202.9,,,,,,,,,,,,,,
2020,01,12,08,23,00,175.4,,,,,,,,,,,,,,
2020,01,12,08,24,00,151.4,,,,,,,,,,,,,,
2020,01,12,08,25,00,146.7,,,,,,,,,,,,,,
2020,01,12,08,26,00,140.2,,,,,,,,,,,,,,
2020,01,12,08,27,00,146.1,,,,,,,,,,,,,,
2020,01,12,08,28,00,146.9,,,,,,,,,,,,,,
2020,01,12,08,29,00,148.6,,,,,,,,,,,,,,
2020,01,12,08,30,00,146.1,,,,,,,,,,,,,,
2020,01,12,08,31,00,144.8,,,,,,,,,,,,,,
2020,01,12,08,32,00,149.2,,,,,,,,,,,,,,
2020,01,12,08,33,00,143.4,,,,,,,,,,,,,,
2020,01,12,08,34,00,142.2,,,,,,,,,,,,,,
2020,01,12,08,35,00,,,,,,,,,,,,,,,
2020,01,12,08,36,00,,,,,,,,,,,,,,,
2020,01,12,08,37,00,127.4,,,,,,,,,,,,,,
2020,01,12,08,38,00,131.7,,,,,,,,,,,,,,
2020,01,12,08,39,00,137.6,,,,,,,,,,,,,,
2020,01,12,08,40,00,135.6,,,,,,,,,,,,,,
2020,01,12,08,41,00,134.5,,,,,,,,,,,,,,
2020,01,12,08,42,00,130.7,,,,,,,,,,,,,,
2020,01,12,08,43,00,127.4,,,,,,,,,,,,,,
2020,01,12,08,44,00,125.5,,,,,,,,,,,,,,
2020,01,12,08,45,00,125.5,,,,,,,,,,,,,,
2020,01,12,08,46,00,126.7,,,,,,,,,,,,,,
2020,01,12,08,47,00,125.2,,,,,,,,,,,,,,
2020,01,12,08,48,00,137.9,,,,,,,,,,,,,,
2020,01,12,08,49,00,138.1,,,,,,,,,,,,,,
2020,01,12,08,50,00,146.0,,,,,,,,,,,,,,
2020,01,12,08,51,00,140.5,,,,,,,,,,,,,,
2020,01,12,08,52,00,141.7,,,,,,,,,,,,,,
2020,01,12,08,53,00,138.0,,,,,,,,,,,,,,
2020,01,12,08,54,00,137.6,,,,,,,,,,,,,,
2020,01,12,08,55,00,135.9,,,,,,,,,,,,,,
2020,01,12,08,56,00,136.8,,,,,,,,,,,,,,
2020,01,12,08,57,00,141.9,,,,,,,,,,,,,,
2020,01,12,08,58,00,146.2,,,,,,,,,,,,,,
2020,01,12,08,59,00,167.0,,,,,,,,,,,,,,
2020,01,12,09,00,00,175.3,,,,,,,,,,,,,,
2020,01,12,09,01,00,195.3,,,,,,,,,,,,,,
2020,01,12,09,02,00,200.8,,,,,,,,,,,,,,
2020,01,12,09,03,00,211.7,,,,,,,,,,,,,,
2020,01,12,09,04,00,203.3,,,,,,,,,,,,,,
2020,01,12,09,05,00,196.6,,,,,,,,,,,,,,
2020,01,12,09,06,00,183.4,,,,,,,,,,,,,,
2020,01,12,09,07,00,181.1,,,,,,,,,,,,,,
2020,01,12,09,08,00,179.9,,,,,,,,,,,,,,
2020,01,12,09,09,00,177.2,,,,,,,,,,,,,,
2020,01,12,09,10,00,184.8,,,,,,,,,,,,,,
2020,01,12,09,11,00,187.9,,,,,,,,,,,,,,
2020,01,12,09,12,00,183.7,,,,,,,,,,,,,,
2020,01,12,09,13,00,200.0,,,,,,,,,,,,,,
2020,01,12,09,14,00,199.3,,,,,,,,,,,,,,
2020,01,12,09,15,00,178.8,,,,,,,,,,,,,,
2020,01,12,09,16,00,167.5,,,,,,,,,,,,,,
2020,01,12,09,17,00,171.5,,,,,,,,,,,,,,
2020,01,12,09,18,00,186.2,,,,,,,,,,,,,,
2020,01,12,09,19,00,187.3,,,,,,,,,,,,,,
2020,01,12,09,20,00,180.5,,,,,,,,,,,,,,
2020,01,12,09,21,00,192.4,,,,,,,,,,,,,,
2020,01,12,09,22,00,183.1,,,,,,,,,,,,,,
2020,01,12,09,23,00,172.6,,,,,,,,,,,,,,
2020,01,12,09,24,00,172.1,,,,,,,,,,,,,,
2020,01,12,09,25,00,172.7,,,,,,,,,,,,,,
2020,01,12,09,26,00,156.8,,,,,,,,,,,,,,
2020,01,12,09,27,00,166.7,,,,,,,,,,,,,,
2020,01,12,09,28,00,161.0,,,,,,,,,,,,,,
2020,01,12,09,29,00,151.4,,,,,,,,,,,,,,
2020,01,12,09,30,00,151.0,,,,,,,,,,,,,,
2020,01,12,09,31,00,148.5,,,,,,,,,,,,,,
2020,01,12,09,32,00,147.5,,,,,,,,,,,,,,
2020,01,12,09,33,00,146.7,,,,,,,,,,,,,,
2020,01,12,09,34,00,147.8,,,,,,,,,,,,,,
2020,01,12,09,35,00,152.6,,,,,,,,,,,,,,
2020,01,12,09,36,00,148.8,,,,,,,,,,,,,,
2020,01,12,09,37,00,148.9,,,,,,,,,,,,,,
2020,01,12,09,38,00,150.0,,,,,,,,,,,,,,
2020,01,12,09,39,00,151.3,,,,,,,,,,,,,,
2020,01,12,09,40,00,,,,,,,,,,,,,,,
2020,01,12,09,41,00,,,,,,,,,,,,,,,
2020,01,12,09,42,00,149.8,,,,,,,,,,,,,,
2020,01,12,09,43,00,156.1,,,,,,,,,,,,,,
2020,01,12,09,44,00,157.1,,,,,,,,,,,,,,
2020,01,12,09,45,00,174.8,,,,,,,,,,,,,,